Time,TemperatureF,DewpointF,PressureIn,WindDirection,WindDirectionDegrees,WindSpeedMPH,WindSpeedGustMPH,Humidity,HourlyPrecipIn,Conditions,Clouds,dailyrainin,SoftwareType,DateUTC
2013-01-07 00:00:00,31.8,26.0,30.34,WSW,244,4.0,11.0,79,0.00,,,0.01,WUHU216DAVISVP2,2013-01-07 05:00:00,
2013-01-07 00:05:00,31.8,26.0,30.34,WSW,247,5.0,11.0,79,0.00,,,0.00,WUHU216DAVISVP2,2013-01-07 05:05:00,
2013-01-07 00:10:00,31.9,25.5,30.34,West,264,6.0,10.0,77,0.00,,,0.00,WUHU216DAVISVP2,2013-01-07 05:10:00,
2013-01-07 00:15:00,31.9,25.5,30.33,West,261,4.0,10.0,77,0.00,,,0.00,WUHU216DAVISVP2,2013-01-07 05:15:00,
2013-01-07 00:20:00,31.8,25.4,30.33,WSW,238,5.0,10.0,77,0.00,,,0.00,WUHU216DAVISVP2,2013-01-07 05:20:00,
2013-01-07 00:25:00,31.7,25.3,30.34,WSW,239,7.0,10.0,77,0.00,,,0.00,WUHU216DAVISVP2,2013-01-07 05:25:00,
2013-01-07 00:30:00,31.6,25.2,30.35,SW,236,8.0,9.0,77,0.00,,,0.00,WUHU216DAVISVP2,2013-01-07 05:30:00,
2013-01-07 00:35:00,31.5,25.1,30.35,WSW,237,6.0,10.0,77,0.00,,,0.00,WUHU216DAVISVP2,2013-01-07 05:35:00,
2013-01-07 00:40:00,31.6,25.2,30.35,SW,228,5.0,10.0,77,0.00,,,0.00,WUHU216DAVISVP2,2013-01-07 05:40:00,
2013-01-07 00:45:00,31.6,25.2,30.35,SW,227,7.0,10.0,77,0.00,,,0.00,WUHU216DAVISVP2,2013-01-07 05:45:00,
2013-01-07 00:50:00,31.6,24.9,30.35,SW,232,9.0,11.0,76,0.00,,,0.00,WUHU216DAVISVP2,2013-01-07 05:50:00,
2013-01-07 00:55:00,31.5,24.8,30.35,SW,229,11.0,11.0,76,0.00,,,0.00,WUHU216DAVISVP2,2013-01-07 05:55:00,
2013-01-07 01:00:00,31.5,24.5,30.35,SW,221,6.0,11.0,75,0.00,,,0.00,WUHU216DAVISVP2,2013-01-07 06:00:00,
2013-01-07 01:05:00,31.6,24.3,30.35,WSW,247,9.0,11.0,74,0.00,,,0.00,WUHU216DAVISVP2,2013-01-07 06:05:00,
2013-01-07 01:10:00,31.7,24.0,30.35,WSW,242,6.0,11.0,73,0.00,,,0.00,WUHU216DAVISVP2,2013-01-07 06:10:00,
2013-01-07 01:15:00,31.7,24.4,30.35,West,271,4.0,11.0,74,0.00,,,0.00,WUHU216DAVISVP2,2013-01-07 06:15:00,
2013-01-07 01:20:00,31.7,24.4,30.35,West,275,3.0,11.0,74,0.00,,,0.00,WUHU216DAVISVP2,2013-01-07 06:20:00,
2013-01-07 01:26:00,31.6,24.3,30.36,WNW,286,4.0,11.0,74,0.00,,,0.00,WUHU216DAVISVP2,2013-01-07 06:26:00,
2013-01-07 01:31:00,31.6,24.3,30.36,WNW,282,4.0,9.0,74,0.00,,,0.00,WUHU216DAVISVP2,2013-01-07 06:31:00,
2013-01-07 01:36:00,31.5,24.5,30.36,WNW,286,4.0,7.0,75,0.00,,,0.00,WUHU216DAVISVP2,2013-01-07 06:36:00,
2013-01-07 01:41:00,31.4,24.4,30.36,WNW,287,3.0,7.0,75,0.00,,,0.00,WUHU216DAVISVP2,2013-01-07 06:41:00,
2013-01-07 01:46:00,31.4,24.4,30.35,WNW,287,3.0,7.0,75,0.00,,,0.00,WUHU216DAVISVP2,2013-01-07 06:46:00,
2013-01-07 01:51:00,31.2,24.5,30.35,WNW,295,2.0,7.0,76,0.00,,,0.00,WUHU216DAVISVP2,2013-01-07 06:51:00,
2013-01-07 01:56:00,31.1,24.4,30.35,WNW,302,1.0,5.0,76,0.00,,,0.00,WUHU216DAVISVP2,2013-01-07 06:56:00,
2013-01-07 02:01:00,31.0,24.3,30.35,NW,315,2.0,4.0,76,0.00,,,0.00,WUHU216DAVISVP2,2013-01-07 07:01:00,
2013-01-07 02:06:00,31.1,24.4,30.35,WNW,286,5.0,6.0,76,0.00,,,0.00,WUHU216DAVISVP2,2013-01-07 07:06:00,
2013-01-07 02:11:00,31.1,24.4,30.36,WNW,297,2.0,6.0,76,0.00,,,0.00,WUHU216DAVISVP2,2013-01-07 07:11:00,
2013-01-07 02:16:00,31.1,24.4,30.36,WNW,297,0.0,6.0,76,0.00,,,0.00,WUHU216DAVISVP2,2013-01-07 07:16:00,
2013-01-07 02:21:00,31.0,24.6,30.36,WNW,297,1.0,6.0,77,0.00,,,0.00,WUHU216DAVISVP2,2013-01-07 07:21:00,
2013-01-07 02:26:00,30.9,24.5,30.36,WNW,297,2.0,4.0,77,0.00,,,0.00,WUHU216DAVISVP2,2013-01-07 07:26:00,
2013-01-07 02:31:00,30.9,24.5,30.36,WNW,297,1.0,3.0,77,0.00,,,0.00,WUHU216DAVISVP2,2013-01-07 07:31:00,
2013-01-07 02:36:00,30.9,24.5,30.37,WNW,297,0.0,3.0,77,0.00,,,0.00,WUHU216DAVISVP2,2013-01-07 07:36:00,
2013-01-07 02:41:00,30.8,24.4,30.37,WNW,297,0.0,3.0,77,0.00,,,0.00,WUHU216DAVISVP2,2013-01-07 07:41:00,
2013-01-07 02:46:00,30.7,24.7,30.36,WNW,297,0.0,3.0,78,0.00,,,0.00,WUHU216DAVISVP2,2013-01-07 07:46:00,
2013-01-07 02:51:00,30.5,24.8,30.37,WNW,297,0.0,2.0,79,0.00,,,0.00,WUHU216DAVISVP2,2013-01-07 07:51:00,
2013-01-07 02:57:00,30.3,24.6,30.37,WNW,284,0.0,3.0,79,0.00,,,0.00,WUHU216DAVISVP2,2013-01-07 07:57:00,
2013-01-07 03:02:00,30.2,24.5,30.37,WNW,284,0.0,3.0,79,0.00,,,0.00,WUHU216DAVISVP2,2013-01-07 08:02:00,
2013-01-07 03:07:00,30.2,24.5,30.37,WNW,284,0.0,3.0,79,0.00,,,0.00,WUHU216DAVISVP2,2013-01-07 08:07:00,
2013-01-07 03:12:00,30.4,24.7,30.37,WNW,284,0.0,3.0,79,0.00,,,0.00,WUHU216DAVISVP2,2013-01-07 08:12:00,
2013-01-07 03:17:00,30.4,24.7,30.37,WNW,284,0.0,1.0,79,0.00,,,0.00,WUHU216DAVISVP2,2013-01-07 08:17:00,
2013-01-07 03:22:00,30.3,24.3,30.37,WNW,284,0.0,1.0,78,0.00,,,0.00,WUHU216DAVISVP2,2013-01-07 08:22:00,
2013-01-07 03:27:00,30.3,24.3,30.38,WNW,284,0.0,0.0,78,0.00,,,0.00,WUHU216DAVISVP2,2013-01-07 08:27:00,
2013-01-07 03:32:00,30.1,24.7,30.38,WNW,284,0.0,2.0,80,0.00,,,0.00,WUHU216DAVISVP2,2013-01-07 08:32:00,
2013-01-07 03:37:00,30.0,24.6,30.38,WNW,284,0.0,2.0,80,0.00,,,0.00,WUHU216DAVISVP2,2013-01-07 08:37:00,
2013-01-07 03:42:00,29.9,24.5,30.38,WNW,284,0.0,2.0,80,0.00,,,0.00,WUHU216DAVISVP2,2013-01-07 08:42:00,
2013-01-07 03:47:00,29.9,24.5,30.38,WNW,284,0.0,1.0,80,0.00,,,0.00,WUHU216DAVISVP2,2013-01-07 08:47:00,
2013-01-07 03:52:00,29.9,24.5,30.37,WNW,284,0.0,1.0,80,0.00,,,0.00,WUHU216DAVISVP2,2013-01-07 08:52:00,
2013-01-07 03:57:00,29.9,24.5,30.38,WNW,284,0.0,1.0,80,0.00,,,0.00,WUHU216DAVISVP2,2013-01-07 08:57:00,
2013-01-07 04:02:00,30.0,24.6,30.38,WNW,284,0.0,1.0,80,0.00,,,0.00,WUHU216DAVISVP2,2013-01-07 09:02:00,
2013-01-07 04:08:00,30.0,24.6,30.38,WNW,284,0.0,1.0,80,0.00,,,0.00,WUHU216DAVISVP2,2013-01-07 09:08:00,
2013-01-07 04:13:00,30.0,24.9,30.38,SSE,152,0.0,3.0,81,0.00,,,0.00,WUHU216DAVISVP2,2013-01-07 09:13:00,
2013-01-07 04:18:00,30.0,25.5,30.38,SSE,152,0.0,3.0,83,0.00,,,0.00,WUHU216DAVISVP2,2013-01-07 09:18:00,
2013-01-07 04:23:00,30.0,25.7,30.39,SSE,163,3.0,4.0,84,0.00,,,0.00,WUHU216DAVISVP2,2013-01-07 09:23:00,
2013-01-07 04:28:00,30.0,26.3,30.39,South,172,1.0,4.0,86,0.00,,,0.00,WUHU216DAVISVP2,2013-01-07 09:28:00,
2013-01-07 04:33:00,29.9,26.5,30.39,South,175,2.0,4.0,87,0.00,,,0.00,WUHU216DAVISVP2,2013-01-07 09:33:00,
2013-01-07 04:38:00,29.9,26.5,30.39,South,184,3.0,5.0,87,0.00,,,0.00,WUHU216DAVISVP2,2013-01-07 09:38:00,
2013-01-07 04:43:00,29.9,26.7,30.40,SSW,194,2.0,5.0,88,0.00,,,0.00,WUHU216DAVISVP2,2013-01-07 09:43:00,
2013-01-07 04:48:00,29.9,26.7,30.40,South,182,4.0,6.0,88,0.00,,,0.00,WUHU216DAVISVP2,2013-01-07 09:48:00,
2013-01-07 04:53:00,30.0,27.1,30.40,South,178,3.0,6.0,89,0.00,,,0.00,WUHU216DAVISVP2,2013-01-07 09:53:00,
2013-01-07 04:58:00,29.9,27.0,30.39,South,186,5.0,6.0,89,0.00,,,0.00,WUHU216DAVISVP2,2013-01-07 09:58:00,
2013-01-07 05:03:00,29.9,27.0,30.39,South,188,4.0,6.0,89,0.00,,,0.00,WUHU216DAVISVP2,2013-01-07 10:03:00,
2013-01-07 05:08:00,29.9,27.0,30.39,South,177,3.0,7.0,89,0.00,,,0.00,WUHU216DAVISVP2,2013-01-07 10:08:00,
2013-01-07 05:13:00,29.9,27.0,30.40,South,190,5.0,7.0,89,0.00,,,0.00,WUHU216DAVISVP2,2013-01-07 10:13:00,
2013-01-07 05:18:00,29.8,26.9,30.40,SSW,194,4.0,7.0,89,0.00,,,0.00,WUHU216DAVISVP2,2013-01-07 10:18:00,
2013-01-07 05:23:00,29.9,27.0,30.40,SSW,193,1.0,7.0,89,0.00,,,0.00,WUHU216DAVISVP2,2013-01-07 10:23:00,
2013-01-07 05:28:00,29.8,26.9,30.40,SSW,193,4.0,6.0,89,0.00,,,0.00,WUHU216DAVISVP2,2013-01-07 10:28:00,
2013-01-07 05:34:00,29.7,26.8,30.40,South,180,2.0,6.0,89,0.00,,,0.00,WUHU216DAVISVP2,2013-01-07 10:34:00,
2013-01-07 05:39:00,29.7,26.8,30.40,South,180,3.0,6.0,89,0.00,,,0.00,WUHU216DAVISVP2,2013-01-07 10:39:00,
2013-01-07 05:44:00,29.6,26.7,30.40,SSW,192,2.0,5.0,89,0.00,,,0.00,WUHU216DAVISVP2,2013-01-07 10:44:00,
2013-01-07 05:49:00,29.6,26.7,30.39,SSW,193,2.0,6.0,89,0.00,,,0.00,WUHU216DAVISVP2,2013-01-07 10:49:00,
2013-01-07 05:54:00,29.5,26.6,30.39,SSW,193,2.0,6.0,89,0.00,,,0.00,WUHU216DAVISVP2,2013-01-07 10:54:00,
2013-01-07 05:59:00,29.3,26.4,30.39,SSW,193,2.0,6.0,89,0.00,,,0.00,WUHU216DAVISVP2,2013-01-07 10:59:00,
2013-01-07 06:04:00,29.2,26.3,30.39,SSW,193,1.0,6.0,89,0.00,,,0.00,WUHU216DAVISVP2,2013-01-07 11:04:00,
2013-01-07 06:09:00,29.1,26.2,30.39,SSW,193,3.0,5.0,89,0.00,,,0.00,WUHU216DAVISVP2,2013-01-07 11:09:00,
2013-01-07 06:14:00,29.0,26.1,30.40,SSW,193,1.0,4.0,89,0.00,,,0.00,WUHU216DAVISVP2,2013-01-07 11:14:00,
2013-01-07 06:19:00,28.9,26.0,30.40,SSW,193,2.0,5.0,89,0.00,,,0.00,WUHU216DAVISVP2,2013-01-07 11:19:00,
2013-01-07 06:24:00,28.7,25.8,30.40,SSW,196,4.0,6.0,89,0.00,,,0.00,WUHU216DAVISVP2,2013-01-07 11:24:00,
2013-01-07 06:29:00,28.7,25.8,30.41,SSW,192,4.0,6.0,89,0.00,,,0.00,WUHU216DAVISVP2,2013-01-07 11:29:00,
2013-01-07 06:34:00,28.5,25.6,30.41,South,184,3.0,6.0,89,0.00,,,0.00,WUHU216DAVISVP2,2013-01-07 11:34:00,
2013-01-07 06:39:00,28.4,25.8,30.41,South,184,4.0,7.0,90,0.00,,,0.00,WUHU216DAVISVP2,2013-01-07 11:39:00,
2013-01-07 06:44:00,28.2,25.6,30.41,South,184,2.0,7.0,90,0.00,,,0.00,WUHU216DAVISVP2,2013-01-07 11:44:00,
2013-01-07 06:49:00,28.0,25.4,30.42,South,184,4.0,7.0,90,0.00,,,0.00,WUHU216DAVISVP2,2013-01-07 11:49:00,
2013-01-07 06:54:00,27.9,25.3,30.42,South,184,2.0,7.0,90,0.00,,,0.00,WUHU216DAVISVP2,2013-01-07 11:54:00,
2013-01-07 07:00:00,27.7,25.1,30.42,South,190,3.0,8.0,90,0.00,,,0.00,WUHU216DAVISVP2,2013-01-07 12:00:00,
2013-01-07 07:05:00,27.6,25.0,30.43,SSW,194,5.0,8.0,90,0.00,,,0.00,WUHU216DAVISVP2,2013-01-07 12:05:00,
2013-01-07 07:10:00,27.5,24.9,30.43,SSW,194,2.0,8.0,90,0.00,,,0.00,WUHU216DAVISVP2,2013-01-07 12:10:00,
2013-01-07 07:15:00,27.3,24.7,30.42,SSW,194,5.0,8.0,90,0.00,,,0.00,WUHU216DAVISVP2,2013-01-07 12:15:00,
2013-01-07 07:20:00,27.1,24.5,30.42,SSW,192,2.0,7.0,90,0.00,,,0.00,WUHU216DAVISVP2,2013-01-07 12:20:00,
2013-01-07 07:25:00,26.9,24.3,30.43,South,191,5.0,7.0,90,0.00,,,0.00,WUHU216DAVISVP2,2013-01-07 12:25:00,
2013-01-07 07:30:00,26.6,24.0,30.43,South,191,3.0,7.0,90,0.00,,,0.00,WUHU216DAVISVP2,2013-01-07 12:30:00,
2013-01-07 07:35:00,26.4,23.8,30.43,South,191,2.0,6.0,90,0.00,,,0.00,WUHU216DAVISVP2,2013-01-07 12:35:00,
2013-01-07 07:40:00,26.2,23.6,30.42,South,191,4.0,6.0,90,0.00,,,0.00,WUHU216DAVISVP2,2013-01-07 12:40:00,
2013-01-07 07:45:00,26.0,23.4,30.43,SSW,193,3.0,7.0,90,0.00,,,0.00,WUHU216DAVISVP2,2013-01-07 12:45:00,
2013-01-07 07:50:00,25.7,23.1,30.43,South,186,5.0,7.0,90,0.00,,,0.00,WUHU216DAVISVP2,2013-01-07 12:50:00,
2013-01-07 07:55:00,25.5,22.9,30.43,South,184,5.0,7.0,90,0.00,,,0.00,WUHU216DAVISVP2,2013-01-07 12:55:00,
2013-01-07 08:00:00,25.3,22.7,30.44,South,188,6.0,8.0,90,0.00,,,0.00,WUHU216DAVISVP2,2013-01-07 13:00:00,
2013-01-07 08:05:00,25.1,22.5,30.44,South,179,3.0,8.0,90,0.00,,,0.00,WUHU216DAVISVP2,2013-01-07 13:05:00,
2013-01-07 08:11:00,24.9,22.6,30.44,South,191,8.0,9.0,91,0.00,,,0.00,WUHU216DAVISVP2,2013-01-07 13:11:00,
2013-01-07 08:16:00,24.9,22.6,30.44,South,183,3.0,9.0,91,0.00,,,0.00,WUHU216DAVISVP2,2013-01-07 13:16:00,
2013-01-07 08:21:00,24.6,22.3,30.44,SSW,200,4.0,9.0,91,0.00,,,0.00,WUHU216DAVISVP2,2013-01-07 13:21:00,
2013-01-07 08:26:00,24.4,21.8,30.44,South,189,3.0,9.0,90,0.00,,,0.00,WUHU216DAVISVP2,2013-01-07 13:26:00,
2013-01-07 08:31:00,24.2,21.9,30.45,South,188,4.0,9.0,91,0.00,,,0.00,WUHU216DAVISVP2,2013-01-07 13:31:00,
2013-01-07 08:36:00,24.2,21.9,30.45,South,179,2.0,7.0,91,0.00,,,0.00,WUHU216DAVISVP2,2013-01-07 13:36:00,
2013-01-07 08:41:00,24.1,21.8,30.45,South,181,2.0,7.0,91,0.00,,,0.00,WUHU216DAVISVP2,2013-01-07 13:41:00,
2013-01-07 08:46:00,24.1,21.8,30.45,South,182,3.0,7.0,91,0.00,,,0.00,WUHU216DAVISVP2,2013-01-07 13:46:00,
2013-01-07 08:51:00,24.1,21.5,30.45,South,181,4.0,6.0,90,0.00,,,0.00,WUHU216DAVISVP2,2013-01-07 13:51:00,
2013-01-07 08:56:00,24.1,21.5,30.45,South,182,2.0,6.0,90,0.00,,,0.00,WUHU216DAVISVP2,2013-01-07 13:56:00,
2013-01-07 09:01:00,24.2,21.6,30.45,South,182,4.0,7.0,90,0.00,,,0.00,WUHU216DAVISVP2,2013-01-07 14:01:00,
2013-01-07 09:06:00,24.2,21.6,30.45,SSW,194,7.0,7.0,90,0.00,,,0.00,WUHU216DAVISVP2,2013-01-07 14:06:00,
2013-01-07 09:11:00,24.2,21.6,30.45,South,186,5.0,11.0,90,0.00,,,0.00,WUHU216DAVISVP2,2013-01-07 14:11:00,
2013-01-07 09:16:00,24.2,21.4,30.45,South,184,5.0,11.0,89,0.00,,,0.00,WUHU216DAVISVP2,2013-01-07 14:16:00,
2013-01-07 09:21:00,24.3,21.5,30.45,South,176,6.0,12.0,89,0.00,,,0.00,WUHU216DAVISVP2,2013-01-07 14:21:00,
2013-01-07 09:26:00,24.5,21.7,30.45,South,190,5.0,12.0,89,0.00,,,0.00,WUHU216DAVISVP2,2013-01-07 14:26:00,
2013-01-07 09:31:00,24.5,21.7,30.45,SSW,199,7.0,12.0,89,0.00,,,0.00,WUHU216DAVISVP2,2013-01-07 14:31:00,
2013-01-07 09:36:00,24.7,21.9,30.45,SSW,200,4.0,12.0,89,0.00,,,0.00,WUHU216DAVISVP2,2013-01-07 14:36:00,
2013-01-07 09:42:00,24.9,21.8,30.45,South,184,11.0,12.0,88,0.00,,,0.00,WUHU216DAVISVP2,2013-01-07 14:42:00,
2013-01-07 09:48:00,25.1,22.0,30.45,SSW,202,7.0,12.0,88,0.00,,,0.00,WUHU216DAVISVP2,2013-01-07 14:48:00,
2013-01-07 09:53:00,25.2,22.1,30.45,SSW,192,5.0,11.0,88,0.00,,,0.00,WUHU216DAVISVP2,2013-01-07 14:53:00,
2013-01-07 09:59:00,25.3,21.9,30.45,SSW,196,6.0,11.0,87,0.00,,,0.00,WUHU216DAVISVP2,2013-01-07 14:59:00,
2013-01-07 10:04:00,25.6,22.2,30.45,SSW,208,8.0,11.0,87,0.00,,,0.00,WUHU216DAVISVP2,2013-01-07 15:04:00,
2013-01-07 10:09:00,25.8,22.4,30.45,South,184,10.0,12.0,87,0.00,,,0.00,WUHU216DAVISVP2,2013-01-07 15:09:00,
2013-01-07 10:14:00,26.0,22.6,30.45,South,185,4.0,12.0,87,0.00,,,0.00,WUHU216DAVISVP2,2013-01-07 15:14:00,
2013-01-07 10:19:00,26.4,22.8,30.45,SSW,198,6.0,12.0,86,0.00,,,0.00,WUHU216DAVISVP2,2013-01-07 15:19:00,
2013-01-07 10:24:00,26.8,23.1,30.45,South,188,7.0,12.0,86,0.00,,,0.00,WUHU216DAVISVP2,2013-01-07 15:24:00,
2013-01-07 10:29:00,27.1,23.2,30.45,SSW,192,6.0,12.0,85,0.00,,,0.00,WUHU216DAVISVP2,2013-01-07 15:29:00,
2013-01-07 10:34:00,27.4,23.5,30.45,SE,135,1.0,10.0,85,0.00,,,0.00,WUHU216DAVISVP2,2013-01-07 15:34:00,
2013-01-07 10:39:00,27.8,23.6,30.45,SSW,199,7.0,10.0,84,0.00,,,0.00,WUHU216DAVISVP2,2013-01-07 15:39:00,
2013-01-07 10:44:00,28.0,23.5,30.45,South,187,6.0,11.0,83,0.00,,,0.00,WUHU216DAVISVP2,2013-01-07 15:44:00,
2013-01-07 10:49:00,28.2,23.7,30.45,SSW,192,4.0,11.0,83,0.00,,,0.00,WUHU216DAVISVP2,2013-01-07 15:49:00,
2013-01-07 10:54:00,28.4,23.6,30.45,SSE,163,2.0,11.0,82,0.00,,,0.00,WUHU216DAVISVP2,2013-01-07 15:54:00,
2013-01-07 10:59:00,28.7,23.9,30.44,SE,146,3.0,12.0,82,0.00,,,0.00,WUHU216DAVISVP2,2013-01-07 15:59:00,
2013-01-07 11:04:00,29.0,23.9,30.45,South,173,6.0,12.0,81,0.00,,,0.00,WUHU216DAVISVP2,2013-01-07 16:04:00,
2013-01-07 11:09:00,29.1,24.0,30.44,SSE,155,7.0,12.0,81,0.00,,,0.00,WUHU216DAVISVP2,2013-01-07 16:09:00,
2013-01-07 11:14:00,29.1,24.0,30.44,SSE,163,8.0,12.0,81,0.00,,,0.00,WUHU216DAVISVP2,2013-01-07 16:14:00,
2013-01-07 11:20:00,29.2,24.1,30.44,SSE,158,3.0,12.0,81,0.00,,,0.00,WUHU216DAVISVP2,2013-01-07 16:20:00,
2013-01-07 11:25:00,29.2,23.8,30.43,SSE,151,6.0,12.0,80,0.00,,,0.00,WUHU216DAVISVP2,2013-01-07 16:25:00,
2013-01-07 11:30:00,29.2,23.8,30.43,South,184,8.0,12.0,80,0.00,,,0.00,WUHU216DAVISVP2,2013-01-07 16:30:00,
2013-01-07 11:35:00,29.2,23.8,30.43,South,181,5.0,13.0,80,0.00,,,0.00,WUHU216DAVISVP2,2013-01-07 16:35:00,
2013-01-07 11:40:00,29.4,24.0,30.43,SSE,165,4.0,13.0,80,0.00,,,0.00,WUHU216DAVISVP2,2013-01-07 16:40:00,
2013-01-07 11:45:00,29.6,24.2,30.43,South,177,10.0,13.0,80,0.00,,,0.00,WUHU216DAVISVP2,2013-01-07 16:45:00,
2013-01-07 11:50:00,29.7,24.3,30.43,South,184,7.0,14.0,80,0.00,,,0.00,WUHU216DAVISVP2,2013-01-07 16:50:00,
2013-01-07 11:55:00,29.9,24.2,30.42,SE,129,3.0,14.0,79,0.00,,,0.00,WUHU216DAVISVP2,2013-01-07 16:55:00,
2013-01-07 12:00:00,30.1,24.4,30.42,SSE,150,9.0,14.0,79,0.00,,,0.00,WUHU216DAVISVP2,2013-01-07 17:00:00,
2013-01-07 12:05:00,30.1,24.1,30.41,South,186,8.0,14.0,78,0.00,,,0.00,WUHU216DAVISVP2,2013-01-07 17:05:00,
2013-01-07 12:10:00,29.7,24.0,30.41,South,180,7.0,17.0,79,0.00,,,0.00,WUHU216DAVISVP2,2013-01-07 17:10:00,
2013-01-07 12:15:00,30.1,24.4,30.41,South,178,9.0,17.0,79,0.00,,,0.00,WUHU216DAVISVP2,2013-01-07 17:15:00,
2013-01-07 12:20:00,29.9,24.2,30.40,SE,131,10.0,17.0,79,0.00,,,0.00,WUHU216DAVISVP2,2013-01-07 17:20:00,
2013-01-07 12:25:00,30.0,24.3,30.40,South,174,8.0,17.0,79,0.00,,,0.00,WUHU216DAVISVP2,2013-01-07 17:25:00,
2013-01-07 12:30:00,30.1,24.4,30.40,SSE,163,8.0,16.0,79,0.00,,,0.00,WUHU216DAVISVP2,2013-01-07 17:30:00,
2013-01-07 12:35:00,30.2,24.2,30.39,SE,139,9.0,18.0,78,0.00,,,0.00,WUHU216DAVISVP2,2013-01-07 17:35:00,
2013-01-07 12:41:00,30.2,24.5,30.39,South,188,6.0,18.0,79,0.00,,,0.00,WUHU216DAVISVP2,2013-01-07 17:41:00,
2013-01-07 12:46:00,30.4,24.7,30.39,South,183,11.0,18.0,79,0.00,,,0.00,WUHU216DAVISVP2,2013-01-07 17:46:00,
2013-01-07 12:51:00,30.6,24.9,30.38,South,174,9.0,18.0,79,0.00,,,0.00,WUHU216DAVISVP2,2013-01-07 17:51:00,
2013-01-07 12:56:00,30.7,25.0,30.38,SSE,167,6.0,16.0,79,0.00,,,0.00,WUHU216DAVISVP2,2013-01-07 17:56:00,
2013-01-07 13:01:00,31.0,25.0,30.38,South,175,7.0,16.0,78,0.00,,,0.00,WUHU216DAVISVP2,2013-01-07 18:01:00,
2013-01-07 13:06:00,30.9,24.9,30.38,SE,132,8.0,18.0,78,0.00,,,0.00,WUHU216DAVISVP2,2013-01-07 18:06:00,
2013-01-07 13:11:00,30.8,24.8,30.37,South,175,10.0,18.0,78,0.00,,,0.00,WUHU216DAVISVP2,2013-01-07 18:11:00,
2013-01-07 13:16:00,30.8,24.8,30.37,SSE,162,7.0,18.0,78,0.00,,,0.00,WUHU216DAVISVP2,2013-01-07 18:16:00,
2013-01-07 13:21:00,31.2,25.2,30.37,SE,130,6.0,16.0,78,0.00,,,0.00,WUHU216DAVISVP2,2013-01-07 18:21:00,
2013-01-07 13:26:00,31.4,25.3,30.37,SSE,151,4.0,16.0,78,0.00,,,0.00,WUHU216DAVISVP2,2013-01-07 18:26:00,
2013-01-07 13:31:00,31.4,25.4,30.36,SSE,151,15.0,16.0,78,0.00,,,0.00,WUHU216DAVISVP2,2013-01-07 18:31:00,
2013-01-07 13:36:00,31.4,25.3,30.36,SSW,192,8.0,15.0,78,0.00,,,0.00,WUHU216DAVISVP2,2013-01-07 18:36:00,
2013-01-07 13:41:00,31.6,25.5,30.36,SE,146,12.0,15.0,78,0.00,,,0.00,WUHU216DAVISVP2,2013-01-07 18:41:00,
2013-01-07 13:46:00,31.5,25.1,30.35,SE,142,7.0,17.0,77,0.00,,,0.00,WUHU216DAVISVP2,2013-01-07 18:46:00,
2013-01-07 13:51:00,31.4,25.4,30.35,SSW,192,7.0,17.0,78,0.00,,,0.00,WUHU216DAVISVP2,2013-01-07 18:51:00,
2013-01-07 13:56:00,31.5,25.5,30.35,South,169,5.0,17.0,78,0.00,,,0.00,WUHU216DAVISVP2,2013-01-07 18:56:00,
2013-01-07 14:01:00,31.9,25.5,30.35,SSE,164,5.0,17.0,77,0.00,,,0.00,WUHU216DAVISVP2,2013-01-07 19:01:00,
2013-01-07 14:06:00,32.0,25.6,30.35,SE,142,8.0,16.0,77,0.00,,,0.00,WUHU216DAVISVP2,2013-01-07 19:06:00,
2013-01-07 14:12:00,31.9,25.5,30.35,SSE,160,10.0,16.0,77,0.00,,,0.00,WUHU216DAVISVP2,2013-01-07 19:12:00,
2013-01-07 14:17:00,31.9,25.5,30.34,SE,144,7.0,17.0,77,0.00,,,0.00,WUHU216DAVISVP2,2013-01-07 19:17:00,
2013-01-07 14:22:00,31.9,25.5,30.34,ESE,118,4.0,18.0,77,0.00,,,0.00,WUHU216DAVISVP2,2013-01-07 19:22:00,
2013-01-07 14:27:00,32.0,25.6,30.34,SSE,155,8.0,18.0,77,0.00,,,0.00,WUHU216DAVISVP2,2013-01-07 19:27:00,
2013-01-07 14:32:00,32.3,25.9,30.34,SSE,157,9.0,18.0,77,0.00,,,0.00,WUHU216DAVISVP2,2013-01-07 19:32:00,
2013-01-07 14:37:00,32.1,25.4,30.34,South,186,15.0,19.0,76,0.00,,,0.00,WUHU216DAVISVP2,2013-01-07 19:37:00,
2013-01-07 14:42:00,32.1,25.7,30.33,South,173,13.0,19.0,77,0.00,,,0.00,WUHU216DAVISVP2,2013-01-07 19:42:00,
2013-01-07 14:47:00,32.3,25.9,30.33,SSE,163,4.0,19.0,77,0.00,,,0.00,WUHU216DAVISVP2,2013-01-07 19:47:00,
2013-01-07 14:52:00,32.3,25.9,30.33,SSE,165,2.0,21.0,77,0.00,,,0.00,WUHU216DAVISVP2,2013-01-07 19:52:00,
2013-01-07 14:57:00,32.3,25.9,30.33,SSE,157,8.0,21.0,77,0.00,,,0.00,WUHU216DAVISVP2,2013-01-07 19:57:00,
2013-01-07 15:02:00,32.5,26.1,30.33,South,178,16.0,21.0,77,0.00,,,0.00,WUHU216DAVISVP2,2013-01-07 20:02:00,
2013-01-07 15:07:00,32.4,26.0,30.33,SSE,165,10.0,21.0,77,0.00,,,0.00,WUHU216DAVISVP2,2013-01-07 20:07:00,
2013-01-07 15:12:00,32.5,26.1,30.33,South,169,7.0,18.0,77,0.00,,,0.00,WUHU216DAVISVP2,2013-01-07 20:12:00,
2013-01-07 15:17:00,32.5,26.1,30.32,South,173,12.0,18.0,77,0.00,,,0.00,WUHU216DAVISVP2,2013-01-07 20:17:00,
2013-01-07 15:22:00,32.5,26.1,30.32,South,184,14.0,21.0,77,0.00,,,0.00,WUHU216DAVISVP2,2013-01-07 20:22:00,
2013-01-07 15:27:00,32.5,26.1,30.32,South,173,7.0,22.0,77,0.00,,,0.00,WUHU216DAVISVP2,2013-01-07 20:27:00,
2013-01-07 15:32:00,32.6,26.2,30.31,SE,141,7.0,22.0,77,0.00,,,0.00,WUHU216DAVISVP2,2013-01-07 20:32:00,
2013-01-07 15:37:00,32.8,26.4,30.31,SE,135,5.0,22.0,77,0.00,,,0.00,WUHU216DAVISVP2,2013-01-07 20:37:00,
2013-01-07 15:43:00,32.8,26.4,30.31,SSW,192,10.0,22.0,77,0.00,,,0.00,WUHU216DAVISVP2,2013-01-07 20:43:00,
2013-01-07 15:48:00,32.8,26.4,30.30,SSE,165,10.0,23.0,77,0.00,,,0.00,WUHU216DAVISVP2,2013-01-07 20:48:00,
2013-01-07 15:53:00,32.8,26.4,30.31,SE,131,8.0,23.0,77,0.00,,,0.00,WUHU216DAVISVP2,2013-01-07 20:53:00,
2013-01-07 15:58:00,32.8,26.4,30.31,SE,141,8.0,23.0,77,0.00,,,0.00,WUHU216DAVISVP2,2013-01-07 20:58:00,
2013-01-07 16:03:00,32.7,26.3,30.31,SE,140,9.0,23.0,77,0.00,,,0.00,WUHU216DAVISVP2,2013-01-07 21:03:00,
2013-01-07 16:08:00,32.7,26.3,30.31,SSE,161,14.0,23.0,77,0.00,,,0.00,WUHU216DAVISVP2,2013-01-07 21:08:00,
2013-01-07 16:13:00,32.6,26.2,30.31,SE,128,9.0,23.0,77,0.00,,,0.00,WUHU216DAVISVP2,2013-01-07 21:13:00,
2013-01-07 16:18:00,32.7,26.3,30.31,SE,142,4.0,22.0,77,0.00,,,0.00,WUHU216DAVISVP2,2013-01-07 21:18:00,
2013-01-07 16:23:00,32.7,26.3,30.31,South,173,2.0,19.0,77,0.00,,,0.00,WUHU216DAVISVP2,2013-01-07 21:23:00,
2013-01-07 16:28:00,32.7,26.3,30.31,SSE,166,7.0,17.0,77,0.00,,,0.00,WUHU216DAVISVP2,2013-01-07 21:28:00,
2013-01-07 16:33:00,32.6,26.2,30.31,SSE,153,11.0,17.0,77,0.00,,,0.00,WUHU216DAVISVP2,2013-01-07 21:33:00,
2013-01-07 16:38:00,32.5,26.4,30.31,SW,219,13.0,17.0,78,0.00,,,0.00,WUHU216DAVISVP2,2013-01-07 21:38:00,
2013-01-07 16:43:00,32.4,26.3,30.31,South,171,7.0,15.0,78,0.00,,,0.00,WUHU216DAVISVP2,2013-01-07 21:43:00,
2013-01-07 16:48:00,32.3,26.2,30.31,SSE,161,6.0,16.0,78,0.00,,,0.00,WUHU216DAVISVP2,2013-01-07 21:48:00,
2013-01-07 16:53:00,32.2,26.1,30.31,SE,136,6.0,16.0,78,0.00,,,0.00,WUHU216DAVISVP2,2013-01-07 21:53:00,
2013-01-07 16:58:00,32.1,26.0,30.31,SE,127,5.0,16.0,78,0.00,,,0.00,WUHU216DAVISVP2,2013-01-07 21:58:00,
2013-01-07 17:04:00,31.9,26.1,30.30,SSE,165,4.0,16.0,79,0.00,,,0.00,WUHU216DAVISVP2,2013-01-07 22:04:00,
2013-01-07 17:09:00,31.7,25.9,30.30,ESE,122,7.0,12.0,79,0.00,,,0.00,WUHU216DAVISVP2,2013-01-07 22:09:00,
2013-01-07 17:14:00,31.4,25.7,30.30,SSE,147,3.0,12.0,79,0.00,,,0.00,WUHU216DAVISVP2,2013-01-07 22:14:00,
2013-01-07 17:19:00,31.1,25.7,30.30,SSE,155,5.0,12.0,80,0.00,,,0.00,WUHU216DAVISVP2,2013-01-07 22:19:00,
2013-01-07 17:24:00,30.8,25.7,30.30,SE,143,11.0,13.0,81,0.00,,,0.00,WUHU216DAVISVP2,2013-01-07 22:24:00,
2013-01-07 17:29:00,30.7,25.6,30.30,South,180,6.0,13.0,81,0.00,,,0.00,WUHU216DAVISVP2,2013-01-07 22:29:00,
2013-01-07 17:34:00,30.6,25.5,30.30,SSE,147,9.0,13.0,81,0.00,,,0.00,WUHU216DAVISVP2,2013-01-07 22:34:00,
2013-01-07 17:39:00,30.5,25.4,30.30,South,182,3.0,13.0,81,0.00,,,0.00,WUHU216DAVISVP2,2013-01-07 22:39:00,
2013-01-07 17:44:00,30.3,25.5,30.30,SE,141,5.0,12.0,82,0.00,,,0.00,WUHU216DAVISVP2,2013-01-07 22:44:00,
2013-01-07 17:49:00,30.2,25.4,30.30,SSE,153,4.0,12.0,82,0.00,,,0.00,WUHU216DAVISVP2,2013-01-07 22:49:00,
2013-01-07 17:54:00,30.0,25.2,30.30,SSE,166,3.0,12.0,82,0.00,,,0.00,WUHU216DAVISVP2,2013-01-07 22:54:00,
2013-01-07 17:59:00,29.8,25.0,30.30,South,171,7.0,10.0,82,0.00,,,0.00,WUHU216DAVISVP2,2013-01-07 22:59:00,
2013-01-07 18:04:00,29.7,25.2,30.30,SSE,161,4.0,10.0,83,0.00,,,0.00,WUHU216DAVISVP2,2013-01-07 23:04:00,
2013-01-07 18:09:00,29.6,25.1,30.30,SSE,156,2.0,8.0,83,0.00,,,0.00,WUHU216DAVISVP2,2013-01-07 23:09:00,
2013-01-07 18:14:00,29.5,25.0,30.29,SE,145,7.0,9.0,83,0.00,,,0.00,WUHU216DAVISVP2,2013-01-07 23:14:00,
2013-01-07 18:19:00,29.3,24.8,30.29,SSE,152,7.0,9.0,83,0.00,,,0.00,WUHU216DAVISVP2,2013-01-07 23:19:00,
2013-01-07 18:24:00,29.3,24.8,30.29,SSE,153,2.0,11.0,83,0.00,,,0.00,WUHU216DAVISVP2,2013-01-07 23:24:00,
2013-01-07 18:30:00,29.2,24.4,30.29,South,185,5.0,11.0,82,0.00,,,0.00,WUHU216DAVISVP2,2013-01-07 23:30:00,
2013-01-07 18:35:00,29.2,24.4,30.30,South,170,3.0,11.0,82,0.00,,,0.00,WUHU216DAVISVP2,2013-01-07 23:35:00,
2013-01-07 18:40:00,29.0,24.2,30.30,South,189,5.0,11.0,82,0.00,,,0.00,WUHU216DAVISVP2,2013-01-07 23:40:00,
2013-01-07 18:45:00,28.9,24.4,30.30,SE,125,2.0,11.0,83,0.00,,,0.00,WUHU216DAVISVP2,2013-01-07 23:45:00,
2013-01-07 18:50:00,28.7,24.2,30.30,SSE,163,2.0,9.0,83,0.00,,,0.00,WUHU216DAVISVP2,2013-01-07 23:50:00,
2013-01-07 18:55:00,28.6,24.1,30.30,SSE,148,1.0,9.0,83,0.00,,,0.00,WUHU216DAVISVP2,2013-01-07 23:55:00,
2013-01-07 19:00:00,28.5,24.0,30.29,SE,130,4.0,8.0,83,0.00,,,0.00,WUHU216DAVISVP2,2013-01-08 00:00:00,
2013-01-07 19:06:00,28.5,24.0,30.29,ESE,115,5.0,8.0,83,0.00,,,0.00,WUHU216DAVISVP2,2013-01-08 00:06:00,
2013-01-07 19:11:00,28.3,23.8,30.29,ESE,121,4.0,8.0,83,0.00,,,0.00,WUHU216DAVISVP2,2013-01-08 00:11:00,
2013-01-07 19:16:00,28.1,23.6,30.28,SE,134,3.0,9.0,83,0.00,,,0.00,WUHU216DAVISVP2,2013-01-08 00:16:00,
2013-01-07 19:21:00,28.0,23.5,30.28,SE,128,5.0,12.0,83,0.00,,,0.00,WUHU216DAVISVP2,2013-01-08 00:21:00,
2013-01-07 19:26:00,27.9,23.4,30.28,SE,136,6.0,12.0,83,0.00,,,0.00,WUHU216DAVISVP2,2013-01-08 00:26:00,
2013-01-07 19:31:00,27.8,23.6,30.28,SE,146,6.0,12.0,84,0.00,,,0.00,WUHU216DAVISVP2,2013-01-08 00:31:00,
2013-01-07 19:36:00,27.7,23.5,30.28,SSE,155,3.0,12.0,84,0.00,,,0.00,WUHU216DAVISVP2,2013-01-08 00:36:00,
2013-01-07 19:41:00,27.6,23.4,30.28,SSE,149,3.0,10.0,84,0.00,,,0.00,WUHU216DAVISVP2,2013-01-08 00:41:00,
2013-01-07 19:46:00,27.5,23.3,30.27,SE,142,10.0,11.0,84,0.00,,,0.00,WUHU216DAVISVP2,2013-01-08 00:46:00,
2013-01-07 19:51:00,27.6,23.4,30.26,SSE,148,5.0,15.0,84,0.00,,,0.00,WUHU216DAVISVP2,2013-01-08 00:51:00,
2013-01-07 19:56:00,27.6,23.4,30.26,SSE,152,5.0,15.0,84,0.00,,,0.00,WUHU216DAVISVP2,2013-01-08 00:56:00,
2013-01-07 20:01:00,27.5,23.3,30.26,SSE,166,5.0,15.0,84,0.00,,,0.00,WUHU216DAVISVP2,2013-01-08 01:01:00,
2013-01-07 20:06:00,27.4,23.2,30.26,SSE,148,7.0,13.0,84,0.00,,,0.00,WUHU216DAVISVP2,2013-01-08 01:06:00,
2013-01-07 20:11:00,27.4,23.2,30.26,SSE,161,3.0,11.0,84,0.00,,,0.00,WUHU216DAVISVP2,2013-01-08 01:11:00,
2013-01-07 20:16:00,27.3,23.1,30.26,South,187,5.0,11.0,84,0.00,,,0.00,WUHU216DAVISVP2,2013-01-08 01:16:00,
2013-01-07 20:21:00,27.1,22.9,30.26,SSE,155,3.0,11.0,84,0.00,,,0.00,WUHU216DAVISVP2,2013-01-08 01:21:00,
2013-01-07 20:27:00,27.0,23.1,30.26,SSE,157,4.0,9.0,85,0.00,,,0.00,WUHU216DAVISVP2,2013-01-08 01:27:00,
2013-01-07 20:32:00,26.8,22.9,30.26,SSE,147,1.0,8.0,85,0.00,,,0.00,WUHU216DAVISVP2,2013-01-08 01:32:00,
2013-01-07 20:37:00,26.7,22.8,30.26,SSE,164,3.0,8.0,85,0.00,,,0.00,WUHU216DAVISVP2,2013-01-08 01:37:00,
2013-01-07 20:42:00,26.6,22.7,30.26,SSE,150,1.0,9.0,85,0.00,,,0.00,WUHU216DAVISVP2,2013-01-08 01:42:00,
2013-01-07 20:47:00,26.5,22.6,30.26,SSE,163,5.0,9.0,85,0.00,,,0.00,WUHU216DAVISVP2,2013-01-08 01:47:00,
2013-01-07 20:52:00,26.5,22.9,30.26,South,178,0.0,9.0,86,0.00,,,0.00,WUHU216DAVISVP2,2013-01-08 01:52:00,
2013-01-07 20:57:00,26.3,22.6,30.26,SSE,162,0.0,9.0,86,0.00,,,0.00,WUHU216DAVISVP2,2013-01-08 01:57:00,
2013-01-07 21:02:00,26.2,22.6,30.26,SSE,159,3.0,7.0,86,0.00,,,0.00,WUHU216DAVISVP2,2013-01-08 02:02:00,
2013-01-07 21:07:00,26.1,22.5,30.26,South,173,3.0,6.0,86,0.00,,,0.00,WUHU216DAVISVP2,2013-01-08 02:07:00,
2013-01-07 21:12:00,26.0,22.4,30.26,SSE,165,1.0,6.0,86,0.00,,,0.00,WUHU216DAVISVP2,2013-01-08 02:12:00,
2013-01-07 21:17:00,25.9,22.3,30.26,SSE,167,2.0,6.0,86,0.00,,,0.00,WUHU216DAVISVP2,2013-01-08 02:17:00,
2013-01-07 21:22:00,25.8,22.2,30.26,South,181,3.0,6.0,86,0.00,,,0.00,WUHU216DAVISVP2,2013-01-08 02:22:00,
2013-01-07 21:27:00,25.8,22.4,30.26,SSE,167,5.0,8.0,87,0.00,,,0.00,WUHU216DAVISVP2,2013-01-08 02:27:00,
2013-01-07 21:33:00,25.7,22.3,30.26,SSE,161,5.0,8.0,87,0.00,,,0.00,WUHU216DAVISVP2,2013-01-08 02:33:00,
2013-01-07 21:38:00,25.7,22.3,30.26,SE,134,1.0,8.0,87,0.00,,,0.00,WUHU216DAVISVP2,2013-01-08 02:38:00,
2013-01-07 21:43:00,25.6,22.2,30.25,SE,137,5.0,10.0,87,0.00,,,0.00,WUHU216DAVISVP2,2013-01-08 02:43:00,
2013-01-07 21:48:00,25.6,22.3,30.25,SSE,148,7.0,10.0,87,0.00,,,0.00,WUHU216DAVISVP2,2013-01-08 02:48:00,
2013-01-07 21:53:00,25.7,22.3,30.24,SSE,159,1.0,10.0,87,0.00,,,0.00,WUHU216DAVISVP2,2013-01-08 02:53:00,
2013-01-07 21:58:00,25.7,22.3,30.24,SSE,153,7.0,10.0,87,0.00,,,0.00,WUHU216DAVISVP2,2013-01-08 02:58:00,
2013-01-07 22:03:00,25.7,22.3,30.25,South,190,2.0,7.0,87,0.00,,,0.00,WUHU216DAVISVP2,2013-01-08 03:03:00,
2013-01-07 22:08:00,25.5,22.1,30.24,SSE,152,2.0,7.0,87,0.00,,,0.00,WUHU216DAVISVP2,2013-01-08 03:08:00,
2013-01-07 22:13:00,25.4,22.0,30.24,SE,140,4.0,7.0,87,0.00,,,0.00,WUHU216DAVISVP2,2013-01-08 03:13:00,
2013-01-07 22:19:00,25.3,21.9,30.25,SSE,159,1.0,6.0,87,0.00,,,0.00,WUHU216DAVISVP2,2013-01-08 03:19:00,
2013-01-07 22:24:00,25.2,21.8,30.24,ESE,113,7.0,8.0,87,0.00,,,0.00,WUHU216DAVISVP2,2013-01-08 03:24:00,
2013-01-07 22:29:00,25.2,21.8,30.23,SE,135,7.0,9.0,87,0.00,,,0.00,WUHU216DAVISVP2,2013-01-08 03:29:00,
2013-01-07 22:34:00,25.1,22.0,30.22,ESE,119,5.0,12.0,88,0.00,,,0.00,WUHU216DAVISVP2,2013-01-08 03:34:00,
2013-01-07 22:39:00,25.1,22.0,30.22,SSE,167,5.0,12.0,88,0.00,,,0.00,WUHU216DAVISVP2,2013-01-08 03:39:00,
2013-01-07 22:44:00,25.2,22.1,30.22,SE,136,12.0,12.0,88,0.00,,,0.00,WUHU216DAVISVP2,2013-01-08 03:44:00,
2013-01-07 22:49:00,25.3,22.2,30.22,SSE,157,10.0,12.0,88,0.00,,,0.00,WUHU216DAVISVP2,2013-01-08 03:49:00,
2013-01-07 22:54:00,25.3,22.2,30.22,SSE,163,6.0,12.0,88,0.00,,,0.00,WUHU216DAVISVP2,2013-01-08 03:54:00,
2013-01-07 22:59:00,25.4,22.3,30.23,South,180,5.0,12.0,88,0.00,,,0.00,WUHU216DAVISVP2,2013-01-08 03:59:00,
2013-01-07 23:04:00,25.4,22.3,30.23,SSE,163,6.0,12.0,88,0.00,,,0.00,WUHU216DAVISVP2,2013-01-08 04:04:00,
2013-01-07 23:09:00,25.4,22.3,30.23,South,173,4.0,12.0,88,0.00,,,0.00,WUHU216DAVISVP2,2013-01-08 04:09:00,
2013-01-07 23:14:00,25.4,22.3,30.22,South,184,6.0,12.0,88,0.00,,,0.00,WUHU216DAVISVP2,2013-01-08 04:14:00,
2013-01-07 23:19:00,25.6,22.5,30.22,SSE,150,3.0,11.0,88,0.00,,,0.00,WUHU216DAVISVP2,2013-01-08 04:19:00,
2013-01-07 23:24:00,25.7,22.3,30.22,SSE,168,4.0,11.0,87,0.00,,,0.00,WUHU216DAVISVP2,2013-01-08 04:24:00,
2013-01-07 23:29:00,25.6,22.2,30.22,South,186,6.0,11.0,87,0.00,,,0.00,WUHU216DAVISVP2,2013-01-08 04:29:00,
2013-01-07 23:34:00,25.6,22.2,30.22,SSE,149,5.0,11.0,87,0.00,,,0.00,WUHU216DAVISVP2,2013-01-08 04:34:00,
2013-01-07 23:39:00,25.8,22.4,30.22,South,178,3.0,11.0,87,0.00,,,0.00,WUHU216DAVISVP2,2013-01-08 04:39:00,
2013-01-07 23:44:00,25.8,22.4,30.23,South,186,6.0,10.0,87,0.00,,,0.00,WUHU216DAVISVP2,2013-01-08 04:44:00,
2013-01-07 23:50:00,25.8,22.4,30.24,SSE,164,4.0,10.0,87,0.00,,,0.00,WUHU216DAVISVP2,2013-01-08 04:50:00,
2013-01-07 23:55:00,25.9,22.5,30.23,South,177,5.0,10.0,87,0.00,,,0.00,WUHU216DAVISVP2,2013-01-08 04:55:00,